Location: Epalinges
(46.5518°N, 6.6683°E)
Time: 14:43:32
(UTC+00:00)

FALCON 9 DEB - Pass Details

Date: 20 June 2021
Orbit: 358 x 373 km, 53.0° (Epoch: 31 July)

Event Time Altitude Azimuth Distance (km) Brightness Sun altitude
Rises 02:29:01 0° 299° (WNW) 2,251 6.6 -9.7°
Reaches altitude 10° 02:31:05 10° 296° (WNW) 1,393 5.5 -9.5°
Maximum altitude 02:34:10 66° 214° (SW) 414 2.7 -9.1°
Drops below altitude 10° 02:37:13 10° 131° (SE) 1,375 5.7 -8.8°
Sets 02:39:15 0° 129° (SE) 2,217 6.8 -8.6°
